Retour au catalogue

STARLINK-3193

ActifCommunicationsVLEO
NORAD 49754·PAYLOAD·🇺🇸 United States

Lancé Dec 2, 2021 depuis Cape Canaveral Space Force Station

Loading…

Prochains Passages (prochaines 24 heures)

TLE

FraisSource: CelesTrak SupGP

Époque: Sep 15, 2026, 01:45 UTC

1 49754C 21115AG  26258.07340278  .00022597  00000+0  64667-3 0  2587
2 49754  53.1596 355.4170 0000998  91.2885 179.5988 15.35380063    16

Suivez STARLINK-3193 en temps réel avec AllMySat

Download on the App Store